Time,TemperatureF,DewpointF,PressureIn,WindDirection,WindDirectionDegrees,WindSpeedMPH,WindSpeedGustMPH,Humidity,HourlyPrecipIn,Conditions,Clouds,dailyrainin,SoftwareType,DateUTC
2013-05-13 00:00:00,50.2,29.7,29.88,SW,216,1.0,1.0,45,0.00,,,0.14,Wunderground v.1.13,2013-05-13 04:00:00,
2013-05-13 00:05:00,50.1,29.6,29.88,SW,232,0.0,0.0,45,0.00,,,0.00,Wunderground v.1.13,2013-05-13 04:05:00,
2013-05-13 00:10:00,50.1,29.0,29.88,West,267,0.0,0.0,44,0.00,,,0.00,Wunderground v.1.13,2013-05-13 04:10:00,
2013-05-13 00:15:00,49.9,28.8,29.88,West,267,0.0,0.0,44,0.00,,,0.00,Wunderground v.1.13,2013-05-13 04:15:00,
2013-05-13 00:20:00,49.8,29.3,29.88,West,267,0.0,0.0,45,0.00,,,0.00,Wunderground v.1.13,2013-05-13 04:20:00,
2013-05-13 00:25:00,49.6,28.6,29.88,West,267,0.0,1.0,44,0.00,,,0.00,Wunderground v.1.13,2013-05-13 04:25:00,
2013-05-13 00:30:00,49.6,29.1,29.89,West,260,1.0,1.0,45,0.00,,,0.00,Wunderground v.1.13,2013-05-13 04:30:00,
2013-05-13 00:35:00,49.5,28.5,29.89,WSW,253,0.0,0.0,44,0.00,,,0.00,Wunderground v.1.13,2013-05-13 04:35:00,
2013-05-13 00:40:00,49.4,29.5,29.89,WSW,253,0.0,1.0,46,0.00,,,0.00,Wunderground v.1.13,2013-05-13 04:40:00,
2013-05-13 00:45:00,49.2,28.2,29.89,West,261,1.0,1.0,44,0.00,,,0.00,Wunderground v.1.13,2013-05-13 04:45:00,
2013-05-13 00:55:00,49.2,28.2,29.89,WSW,239,1.0,1.0,44,0.00,,,0.00,Wunderground v.1.13,2013-05-13 04:55:00,
2013-05-13 01:00:00,49.1,28.1,29.89,WSW,239,0.0,4.0,44,0.00,,,0.00,Wunderground v.1.13,2013-05-13 05:00:00,
2013-05-13 01:10:00,48.8,28.4,29.89,WSW,240,0.0,0.0,45,0.00,,,0.00,Wunderground v.1.13,2013-05-13 05:10:00,
2013-05-13 01:15:00,48.6,28.2,29.90,SSE,162,0.0,0.0,45,0.00,,,0.00,Wunderground v.1.13,2013-05-13 05:15:00,
2013-05-13 01:20:00,48.5,28.1,29.90,WNW,284,1.0,1.0,45,0.00,,,0.00,Wunderground v.1.13,2013-05-13 05:20:00,
2013-05-13 01:25:00,48.5,28.6,29.90,WNW,284,1.0,1.0,46,0.00,,,0.00,Wunderground v.1.13,2013-05-13 05:25:00,
2013-05-13 01:35:00,48.2,28.4,29.90,SW,227,0.0,0.0,46,0.00,,,0.00,Wunderground v.1.13,2013-05-13 05:35:00,
2013-05-13 01:40:00,48.0,28.2,29.90,SW,229,0.0,10.0,46,0.00,,,0.00,Wunderground v.1.13,2013-05-13 05:40:00,
2013-05-13 01:50:00,47.9,28.1,29.90,WSW,241,1.0,1.0,46,0.00,,,0.00,Wunderground v.1.13,2013-05-13 05:50:00,
2013-05-13 01:55:00,47.7,27.9,29.90,WSW,246,1.0,1.0,46,0.00,,,0.00,Wunderground v.1.13,2013-05-13 05:55:00,
2013-05-13 02:00:00,47.7,27.9,29.90,WNW,299,1.0,1.0,46,0.00,,,0.00,Wunderground v.1.13,2013-05-13 06:00:00,
2013-05-13 02:10:00,47.7,27.9,29.90,West,264,1.0,1.0,46,0.00,,,0.00,Wunderground v.1.13,2013-05-13 06:10:00,
2013-05-13 02:15:00,47.7,27.9,29.90,West,264,1.0,1.0,46,0.00,,,0.00,Wunderground v.1.13,2013-05-13 06:15:00,
2013-05-13 02:25:00,47.7,26.8,29.90,WSW,258,1.0,1.0,44,0.00,,,0.00,Wunderground v.1.13,2013-05-13 06:25:00,
2013-05-13 02:30:00,47.6,27.3,29.90,West,274,1.0,3.0,45,0.00,,,0.00,Wunderground v.1.13,2013-05-13 06:30:00,
2013-05-13 02:35:00,47.6,27.3,29.90,WNW,288,1.0,1.0,45,0.00,,,0.00,Wunderground v.1.13,2013-05-13 06:35:00,
2013-05-13 02:40:00,47.4,27.6,29.90,WNW,288,1.0,1.0,46,0.00,,,0.00,Wunderground v.1.13,2013-05-13 06:40:00,
2013-05-13 02:45:00,47.1,27.4,29.90,WNW,288,1.0,1.0,46,0.00,,,0.00,Wunderground v.1.13,2013-05-13 06:45:00,
2013-05-13 02:55:00,46.8,27.6,29.90,WNW,288,0.0,1.0,47,0.00,,,0.00,Wunderground v.1.13,2013-05-13 06:55:00,
2013-05-13 03:00:00,46.7,28.0,29.90,WNW,288,0.0,0.0,48,0.00,,,0.00,Wunderground v.1.13,2013-05-13 07:00:00,
2013-05-13 03:10:00,46.7,28.0,29.90,WNW,288,0.0,0.0,48,0.00,,,0.00,Wunderground v.1.13,2013-05-13 07:10:00,
2013-05-13 03:15:00,46.5,27.8,29.91,WNW,288,0.0,1.0,48,0.00,,,0.00,Wunderground v.1.13,2013-05-13 07:15:00,
2013-05-13 03:20:00,46.5,28.3,29.91,WNW,288,0.0,0.0,49,0.00,,,0.00,Wunderground v.1.13,2013-05-13 07:20:00,
2013-05-13 03:25:00,46.4,28.3,29.91,WNW,288,0.0,0.0,49,0.00,,,0.00,Wunderground v.1.13,2013-05-13 07:25:00,
2013-05-13 03:35:00,46.2,28.6,29.91,WNW,288,0.0,0.0,50,0.00,,,0.00,Wunderground v.1.13,2013-05-13 07:35:00,
2013-05-13 03:40:00,46.1,28.5,29.91,WNW,288,0.0,1.0,50,0.00,,,0.00,Wunderground v.1.13,2013-05-13 07:40:00,
2013-05-13 03:45:00,46.0,28.9,29.90,WNW,288,0.0,0.0,51,0.00,,,0.00,Wunderground v.1.13,2013-05-13 07:45:00,
2013-05-13 03:55:00,45.7,29.1,29.90,WNW,288,0.0,0.0,52,0.00,,,0.00,Wunderground v.1.13,2013-05-13 07:55:00,
2013-05-13 04:00:00,45.7,29.1,29.91,WNW,288,0.0,0.0,52,0.00,,,0.00,Wunderground v.1.13,2013-05-13 08:00:00,
2013-05-13 04:05:00,45.7,29.5,29.91,WNW,288,0.0,0.0,53,0.00,,,0.00,Wunderground v.1.13,2013-05-13 08:05:00,
2013-05-13 04:15:00,45.2,29.5,29.92,WNW,288,0.0,0.0,54,0.00,,,0.00,Wunderground v.1.13,2013-05-13 08:15:00,
2013-05-13 04:20:00,45.1,29.9,29.92,WNW,288,0.0,0.0,55,0.00,,,0.00,Wunderground v.1.13,2013-05-13 08:20:00,
2013-05-13 04:25:00,44.8,30.0,29.92,WNW,288,0.0,0.0,56,0.00,,,0.00,Wunderground v.1.13,2013-05-13 08:25:00,
2013-05-13 04:35:00,44.3,30.4,29.92,WNW,288,0.0,0.0,58,0.00,,,0.00,Wunderground v.1.13,2013-05-13 08:35:00,
2013-05-13 04:40:00,44.2,30.3,29.92,WNW,288,0.0,0.0,58,0.00,,,0.00,Wunderground v.1.13,2013-05-13 08:40:00,
2013-05-13 04:45:00,44.2,30.3,29.92,WNW,288,0.0,0.0,58,0.00,,,0.00,Wunderground v.1.13,2013-05-13 08:45:00,
2013-05-13 04:55:00,44.2,30.8,29.92,WNW,288,0.0,0.0,59,0.00,,,0.00,Wunderground v.1.13,2013-05-13 08:55:00,
2013-05-13 05:00:00,44.1,30.7,29.92,WNW,288,0.0,0.0,59,0.00,,,0.00,Wunderground v.1.13,2013-05-13 09:00:00,
2013-05-13 05:05:00,44.1,31.1,29.92,WNW,288,0.0,0.0,60,0.00,,,0.00,Wunderground v.1.13,2013-05-13 09:05:00,
2013-05-13 05:15:00,43.6,31.8,29.93,WNW,288,0.0,0.0,63,0.00,,,0.00,Wunderground v.1.13,2013-05-13 09:15:00,
2013-05-13 05:20:00,43.2,31.8,29.93,WNW,288,0.0,0.0,64,0.00,,,0.00,Wunderground v.1.13,2013-05-13 09:20:00,
2013-05-13 05:25:00,42.8,32.2,29.93,WNW,288,0.0,0.0,66,0.00,,,0.00,Wunderground v.1.13,2013-05-13 09:25:00,
2013-05-13 05:30:00,42.5,31.9,29.94,WNW,288,0.0,0.0,66,0.00,,,0.00,Wunderground v.1.13,2013-05-13 09:30:00,
2013-05-13 05:40:00,42.3,32.1,29.94,WNW,288,0.0,0.0,67,0.00,,,0.00,Wunderground v.1.13,2013-05-13 09:40:00,
2013-05-13 05:45:00,42.3,32.1,29.94,WNW,288,0.0,0.0,67,0.00,,,0.00,Wunderground v.1.13,2013-05-13 09:45:00,
2013-05-13 05:55:00,42.1,32.3,29.94,WNW,288,0.0,0.0,68,0.00,,,0.00,Wunderground v.1.13,2013-05-13 09:55:00,
2013-05-13 06:00:00,41.9,32.5,29.95,WNW,288,0.0,0.0,69,0.00,,,0.00,Wunderground v.1.13,2013-05-13 10:00:00,
2013-05-13 06:05:00,41.8,32.7,29.95,WNW,288,0.0,0.0,70,0.00,,,0.00,Wunderground v.1.13,2013-05-13 10:05:00,
2013-05-13 06:15:00,41.9,32.5,29.95,WNW,288,0.0,0.0,69,0.00,,,0.00,Wunderground v.1.13,2013-05-13 10:15:00,
2013-05-13 06:20:00,42.3,32.5,29.95,WNW,288,0.0,1.0,68,0.00,,,0.00,Wunderground v.1.13,2013-05-13 10:20:00,
2013-05-13 06:25:00,42.8,32.2,29.95,WNW,288,0.0,0.0,66,0.00,,,0.00,Wunderground v.1.13,2013-05-13 10:25:00,
2013-05-13 06:30:00,43.2,32.2,29.95,WNW,288,0.0,0.0,65,0.00,,,0.00,Wunderground v.1.13,2013-05-13 10:30:00,
2013-05-13 06:40:00,43.6,32.6,29.95,WNW,288,0.0,0.0,65,0.00,,,0.00,Wunderground v.1.13,2013-05-13 10:40:00,
2013-05-13 06:45:00,43.9,32.1,29.95,WNW,288,0.0,0.0,63,0.00,,,0.00,Wunderground v.1.13,2013-05-13 10:45:00,
2013-05-13 06:50:00,44.1,32.3,29.95,WNW,288,0.0,0.0,63,0.00,,,0.00,Wunderground v.1.13,2013-05-13 10:50:00,
2013-05-13 07:00:00,44.8,32.6,29.96,WSW,248,0.0,1.0,62,0.00,,,0.00,Wunderground v.1.13,2013-05-13 11:00:00,
2013-05-13 07:05:00,45.1,32.4,29.96,WSW,247,0.0,1.0,61,0.00,,,0.00,Wunderground v.1.13,2013-05-13 11:05:00,
2013-05-13 07:10:00,45.2,31.3,29.96,WSW,247,1.0,1.0,58,0.00,,,0.00,Wunderground v.1.13,2013-05-13 11:10:00,
2013-05-13 07:15:00,45.5,31.1,29.97,West,264,1.0,2.0,57,0.00,,,0.00,Wunderground v.1.13,2013-05-13 11:15:00,
2013-05-13 07:25:00,45.8,31.9,29.97,West,264,1.0,1.0,58,0.00,,,0.00,Wunderground v.1.13,2013-05-13 11:25:00,
2013-05-13 07:30:00,46.0,32.5,29.97,WSW,247,1.0,1.0,59,0.00,,,0.00,Wunderground v.1.13,2013-05-13 11:30:00,
2013-05-13 07:35:00,46.1,31.3,29.97,SW,227,1.0,2.0,56,0.00,,,0.00,Wunderground v.1.13,2013-05-13 11:35:00,
2013-05-13 07:40:00,46.0,30.7,29.97,WSW,250,2.0,5.0,55,0.00,,,0.00,Wunderground v.1.13,2013-05-13 11:40:00,
2013-05-13 07:50:00,46.1,31.7,29.97,SW,230,1.0,2.0,57,0.00,,,0.00,Wunderground v.1.13,2013-05-13 11:50:00,
2013-05-13 07:55:00,46.2,31.8,29.97,WNW,291,1.0,1.0,57,0.00,,,0.00,Wunderground v.1.13,2013-05-13 11:55:00,
2013-05-13 08:00:00,46.7,31.4,29.97,WNW,291,1.0,1.0,55,0.00,,,0.00,Wunderground v.1.13,2013-05-13 12:00:00,
2013-05-13 08:10:00,46.5,31.2,29.97,WNW,299,1.0,1.0,55,0.00,,,0.00,Wunderground v.1.13,2013-05-13 12:10:00,
2013-05-13 08:15:00,46.5,31.2,29.98,WNW,284,1.0,1.0,55,0.00,,,0.00,Wunderground v.1.13,2013-05-13 12:15:00,
2013-05-13 08:20:00,46.7,31.4,29.98,WNW,284,1.0,1.0,55,0.00,,,0.00,Wunderground v.1.13,2013-05-13 12:20:00,
2013-05-13 08:25:00,46.8,31.0,29.98,WNW,284,1.0,1.0,54,0.00,,,0.00,Wunderground v.1.13,2013-05-13 12:25:00,
2013-05-13 08:30:00,47.0,30.3,29.98,WNW,287,1.0,1.0,52,0.00,,,0.00,Wunderground v.1.13,2013-05-13 12:30:00,
2013-05-13 08:40:00,47.4,29.2,29.98,WSW,253,1.0,1.0,49,0.00,,,0.00,Wunderground v.1.13,2013-05-13 12:40:00,
2013-05-13 08:45:00,47.4,28.7,29.98,WSW,243,1.0,1.0,48,0.00,,,0.00,Wunderground v.1.13,2013-05-13 12:45:00,
2013-05-13 08:50:00,47.6,28.3,29.98,SSW,193,1.0,1.0,47,0.00,,,0.00,Wunderground v.1.13,2013-05-13 12:50:00,
2013-05-13 09:00:00,48.0,27.6,29.98,SSW,209,2.0,2.0,45,0.00,,,0.00,Wunderground v.1.13,2013-05-13 13:00:00,
2013-05-13 09:05:00,48.2,28.4,29.98,SW,229,2.0,3.0,46,0.00,,,0.00,Wunderground v.1.13,2013-05-13 13:05:00,
2013-05-13 09:10:00,48.5,28.6,29.98,WSW,248,1.0,1.0,46,0.00,,,0.00,Wunderground v.1.13,2013-05-13 13:10:00,
2013-05-13 09:15:00,48.5,27.6,29.99,WSW,250,1.0,1.0,44,0.00,,,0.00,Wunderground v.1.13,2013-05-13 13:15:00,
2013-05-13 09:25:00,48.2,27.3,29.99,West,280,2.0,2.0,44,0.00,,,0.00,Wunderground v.1.13,2013-05-13 13:25:00,
2013-05-13 09:30:00,48.3,26.2,29.99,North,0,3.0,3.0,42,0.00,,,0.00,Wunderground v.1.13,2013-05-13 13:30:00,
2013-05-13 09:35:00,48.8,27.3,29.99,NW,325,2.0,5.0,43,0.00,,,0.00,Wunderground v.1.13,2013-05-13 13:35:00,
2013-05-13 09:40:00,48.8,26.7,29.99,WSW,253,2.0,2.0,42,0.00,,,0.00,Wunderground v.1.13,2013-05-13 13:40:00,
2013-05-13 09:50:00,49.1,25.8,29.99,NW,309,2.0,2.0,40,0.00,,,0.00,Wunderground v.1.13,2013-05-13 13:50:00,
2013-05-13 09:55:00,49.1,25.8,29.99,SSW,209,1.0,1.0,40,0.00,,,0.00,Wunderground v.1.13,2013-05-13 13:55:00,
2013-05-13 10:00:00,49.5,25.5,29.99,NW,323,1.0,1.0,39,0.00,,,0.00,Wunderground v.1.13,2013-05-13 14:00:00,
2013-05-13 10:10:00,50.4,25.7,29.99,WNW,287,1.0,1.0,38,0.00,,,0.00,Wunderground v.1.13,2013-05-13 14:10:00,
2013-05-13 10:15:00,50.8,26.7,29.99,WSW,241,1.0,1.0,39,0.00,,,0.00,Wunderground v.1.13,2013-05-13 14:15:00,
2013-05-13 10:20:00,51.1,27.6,29.99,West,281,1.0,5.0,40,0.00,,,0.00,Wunderground v.1.13,2013-05-13 14:20:00,
2013-05-13 10:25:00,51.0,27.5,29.99,SSW,206,1.0,1.0,40,0.00,,,0.00,Wunderground v.1.13,2013-05-13 14:25:00,
2013-05-13 10:35:00,50.8,26.1,29.99,WNW,285,1.0,1.0,38,0.00,,,0.00,Wunderground v.1.13,2013-05-13 14:35:00,
2013-05-13 10:40:00,51.0,26.9,29.99,WSW,244,1.0,1.0,39,0.00,,,0.00,Wunderground v.1.13,2013-05-13 14:40:00,
2013-05-13 10:45:00,51.6,25.5,29.99,WSW,250,1.0,2.0,36,0.00,,,0.00,Wunderground v.1.13,2013-05-13 14:45:00,
2013-05-13 10:55:00,52.5,26.3,29.99,SSW,198,1.0,1.0,36,0.00,,,0.00,Wunderground v.1.13,2013-05-13 14:55:00,
2013-05-13 11:00:00,52.0,25.8,29.98,West,280,1.0,1.0,36,0.00,,,0.00,Wunderground v.1.13,2013-05-13 15:00:00,
2013-05-13 11:10:00,52.2,26.7,29.98,WSW,250,2.0,2.0,37,0.00,,,0.00,Wunderground v.1.13,2013-05-13 15:10:00,
2013-05-13 11:15:00,51.9,27.7,29.98,WSW,237,1.0,1.0,39,0.00,,,0.00,Wunderground v.1.13,2013-05-13 15:15:00,
2013-05-13 11:20:00,51.7,26.2,29.98,WSW,237,1.0,1.0,37,0.00,,,0.00,Wunderground v.1.13,2013-05-13 15:20:00,
2013-05-13 11:25:00,51.3,25.9,29.98,WSW,243,1.0,1.0,37,0.00,,,0.00,Wunderground v.1.13,2013-05-13 15:25:00,
2013-05-13 11:30:00,51.4,24.6,29.99,West,275,1.0,4.0,35,0.00,,,0.00,Wunderground v.1.13,2013-05-13 15:30:00,
2013-05-13 11:40:00,51.4,26.0,29.99,SSE,157,0.0,0.0,37,0.00,,,0.00,Wunderground v.1.13,2013-05-13 15:40:00,
2013-05-13 11:45:00,51.7,26.2,29.99,West,263,0.0,0.0,37,0.00,,,0.00,Wunderground v.1.13,2013-05-13 15:45:00,
2013-05-13 11:55:00,51.4,25.3,29.99,West,274,0.0,0.0,36,0.00,,,0.00,Wunderground v.1.13,2013-05-13 15:55:00,
2013-05-13 12:00:00,51.3,24.5,29.99,West,274,1.0,1.0,35,0.00,,,0.00,Wunderground v.1.13,2013-05-13 16:00:00,
2013-05-13 12:05:00,52.2,26.0,29.99,West,274,0.0,2.0,36,0.00,,,0.00,Wunderground v.1.13,2013-05-13 16:05:00,
2013-05-13 12:10:00,52.9,26.6,29.99,West,265,0.0,1.0,36,0.00,,,0.00,Wunderground v.1.13,2013-05-13 16:10:00,
2013-05-13 12:15:00,52.9,26.6,29.99,WNW,294,1.0,1.0,36,0.00,,,0.00,Wunderground v.1.13,2013-05-13 16:15:00,
2013-05-13 12:25:00,52.5,24.9,29.99,WSW,250,1.0,2.0,34,0.00,,,0.00,Wunderground v.1.13,2013-05-13 16:25:00,
2013-05-13 12:30:00,52.5,25.6,29.99,SW,226,1.0,1.0,35,0.00,,,0.00,Wunderground v.1.13,2013-05-13 16:30:00,
2013-05-13 12:40:00,53.3,27.0,29.99,SW,227,0.0,0.0,36,0.00,,,0.00,Wunderground v.1.13,2013-05-13 16:40:00,
2013-05-13 12:45:00,53.3,26.3,29.98,NW,306,0.0,0.0,35,0.00,,,0.00,Wunderground v.1.13,2013-05-13 16:45:00,
2013-05-13 12:50:00,53.2,26.2,29.98,NW,304,0.0,0.0,35,0.00,,,0.00,Wunderground v.1.13,2013-05-13 16:50:00,
2013-05-13 12:55:00,52.8,25.2,29.98,WSW,253,1.0,2.0,34,0.00,,,0.00,Wunderground v.1.13,2013-05-13 16:55:00,
2013-05-13 13:05:00,53.1,26.1,29.98,WSW,253,0.0,0.0,35,0.00,,,0.00,Wunderground v.1.13,2013-05-13 17:05:00,
2013-05-13 13:10:00,53.1,25.4,29.98,WSW,253,0.0,0.0,34,0.00,,,0.00,Wunderground v.1.13,2013-05-13 17:10:00,
2013-05-13 13:15:00,52.6,25.0,29.98,WSW,257,1.0,1.0,34,0.00,,,0.00,Wunderground v.1.13,2013-05-13 17:15:00,
2013-05-13 13:25:00,53.1,26.1,29.98,WSW,257,0.0,0.0,35,0.00,,,0.00,Wunderground v.1.13,2013-05-13 17:25:00,
2013-05-13 13:30:00,53.2,26.9,29.98,NW,320,1.0,1.0,36,0.00,,,0.00,Wunderground v.1.13,2013-05-13 17:30:00,
2013-05-13 13:35:00,53.9,26.1,29.98,NNW,329,0.0,2.0,34,0.00,,,0.00,Wunderground v.1.13,2013-05-13 17:35:00,
2013-05-13 13:40:00,53.6,24.4,29.98,WNW,282,1.0,1.0,32,0.00,,,0.00,Wunderground v.1.13,2013-05-13 17:40:00,
2013-05-13 13:50:00,54.7,26.1,29.97,WNW,289,1.0,1.0,33,0.00,,,0.00,Wunderground v.1.13,2013-05-13 17:50:00,
2013-05-13 13:55:00,54.7,25.4,29.97,West,268,2.0,2.0,32,0.00,,,0.00,Wunderground v.1.13,2013-05-13 17:55:00,
2013-05-13 14:00:00,54.2,27.1,29.97,NNW,343,1.0,2.0,35,0.00,,,0.00,Wunderground v.1.13,2013-05-13 18:00:00,
2013-05-13 14:10:00,55.1,25.7,29.97,WNW,284,0.0,0.0,32,0.00,,,0.00,Wunderground v.1.13,2013-05-13 18:10:00,
2013-05-13 14:15:00,55.7,26.3,29.97,North,353,2.0,2.0,32,0.00,,,0.00,Wunderground v.1.13,2013-05-13 18:15:00,
2013-05-13 14:20:00,55.3,25.1,29.97,West,278,2.0,2.0,31,0.00,,,0.00,Wunderground v.1.13,2013-05-13 18:20:00,
2013-05-13 14:25:00,54.2,25.7,29.97,WNW,284,1.0,2.0,33,0.00,,,0.00,Wunderground v.1.13,2013-05-13 18:25:00,
2013-05-13 14:35:00,53.2,25.5,29.97,SW,232,1.0,1.0,34,0.00,,,0.00,Wunderground v.1.13,2013-05-13 18:35:00,
2013-05-13 14:40:00,53.5,24.3,29.97,West,260,1.0,3.0,32,0.00,,,0.00,Wunderground v.1.13,2013-05-13 18:40:00,
2013-05-13 14:45:00,53.8,26.1,29.97,WSW,254,1.0,1.0,34,0.00,,,0.00,Wunderground v.1.13,2013-05-13 18:45:00,
2013-05-13 14:50:00,54.1,27.0,29.97,West,270,1.0,6.0,35,0.00,,,0.00,Wunderground v.1.13,2013-05-13 18:50:00,
2013-05-13 15:00:00,53.3,25.6,29.97,WSW,257,2.0,2.0,34,0.00,,,0.00,Wunderground v.1.13,2013-05-13 19:00:00,
2013-05-13 15:05:00,52.8,25.9,29.97,North,0,2.0,2.0,35,0.00,,,0.00,Wunderground v.1.13,2013-05-13 19:05:00,
2013-05-13 15:10:00,52.8,25.9,29.97,WSW,253,2.0,3.0,35,0.00,,,0.00,Wunderground v.1.13,2013-05-13 19:10:00,
2013-05-13 15:15:00,52.6,27.0,29.97,West,271,2.0,2.0,37,0.00,,,0.00,Wunderground v.1.13,2013-05-13 19:15:00,
2013-05-13 15:25:00,52.0,25.2,29.97,West,278,2.0,5.0,35,0.00,,,0.00,Wunderground v.1.13,2013-05-13 19:25:00,
2013-05-13 15:30:00,51.7,24.9,29.98,West,263,3.0,3.0,35,0.00,,,0.00,Wunderground v.1.13,2013-05-13 19:30:00,
2013-05-13 15:35:00,51.7,26.2,29.98,WSW,250,2.0,3.0,37,0.00,,,0.00,Wunderground v.1.13,2013-05-13 19:35:00,
2013-05-13 15:40:00,51.6,26.8,29.98,West,261,2.0,2.0,38,0.00,,,0.00,Wunderground v.1.13,2013-05-13 19:40:00,
2013-05-13 15:50:00,51.6,26.1,29.98,WSW,240,1.0,1.0,37,0.00,,,0.00,Wunderground v.1.13,2013-05-13 19:50:00,
2013-05-13 15:55:00,51.7,26.9,29.98,West,280,1.0,1.0,38,0.00,,,0.00,Wunderground v.1.13,2013-05-13 19:55:00,
2013-05-13 16:00:00,51.9,26.4,29.98,West,272,1.0,1.0,37,0.00,,,0.00,Wunderground v.1.13,2013-05-13 20:00:00,
2013-05-13 16:10:00,52.0,25.2,29.98,West,260,1.0,1.0,35,0.00,,,0.00,Wunderground v.1.13,2013-05-13 20:10:00,
2013-05-13 16:15:00,52.8,25.9,29.97,NE,37,1.0,1.0,35,0.00,,,0.00,Wunderground v.1.13,2013-05-13 20:15:00,
2013-05-13 16:20:00,52.9,25.3,29.97,West,270,2.0,3.0,34,0.00,,,0.00,Wunderground v.1.13,2013-05-13 20:20:00,
2013-05-13 16:30:00,52.5,23.5,29.97,West,268,2.0,2.0,32,0.00,,,0.00,Wunderground v.1.13,2013-05-13 20:30:00,
2013-05-13 16:35:00,52.9,22.3,29.97,West,278,1.0,1.0,30,0.00,,,0.00,Wunderground v.1.13,2013-05-13 20:35:00,
2013-05-13 16:40:00,52.9,23.0,29.97,West,272,1.0,3.0,31,0.00,,,0.00,Wunderground v.1.13,2013-05-13 20:40:00,
2013-05-13 16:45:00,52.5,24.2,29.97,SW,227,1.0,1.0,33,0.00,,,0.00,Wunderground v.1.13,2013-05-13 20:45:00,
2013-05-13 16:55:00,53.5,23.6,29.97,West,264,0.0,0.0,31,0.00,,,0.00,Wunderground v.1.13,2013-05-13 20:55:00,
2013-05-13 17:00:00,53.8,23.8,29.96,WNW,289,1.0,1.0,31,0.00,,,0.00,Wunderground v.1.13,2013-05-13 21:00:00,
2013-05-13 17:05:00,54.1,23.3,29.96,WSW,257,1.0,1.0,30,0.00,,,0.00,Wunderground v.1.13,2013-05-13 21:05:00,
2013-05-13 17:10:00,54.7,23.8,29.96,NNW,344,1.0,1.0,30,0.00,,,0.00,Wunderground v.1.13,2013-05-13 21:10:00,
2013-05-13 17:20:00,54.4,23.6,29.96,West,267,1.0,2.0,30,0.00,,,0.00,Wunderground v.1.13,2013-05-13 21:20:00,
2013-05-13 17:25:00,53.5,21.2,29.96,WSW,257,2.0,3.0,28,0.00,,,0.00,Wunderground v.1.13,2013-05-13 21:25:00,
2013-05-13 17:30:00,53.5,22.8,29.96,WSW,254,1.0,1.0,30,0.00,,,0.00,Wunderground v.1.13,2013-05-13 21:30:00,
2013-05-13 17:40:00,54.4,23.6,29.96,WSW,254,1.0,2.0,30,0.00,,,0.00,Wunderground v.1.13,2013-05-13 21:40:00,
2013-05-13 17:45:00,53.9,21.5,29.96,West,280,2.0,3.0,28,0.00,,,0.00,Wunderground v.1.13,2013-05-13 21:45:00,
2013-05-13 17:50:00,53.6,22.9,29.96,West,281,2.0,2.0,30,0.00,,,0.00,Wunderground v.1.13,2013-05-13 21:50:00,
2013-05-13 17:55:00,53.6,21.2,29.96,West,272,1.0,2.0,28,0.00,,,0.00,Wunderground v.1.13,2013-05-13 21:55:00,
2013-05-13 18:05:00,53.5,22.8,29.97,WNW,284,2.0,5.0,30,0.00,,,0.00,Wunderground v.1.13,2013-05-13 22:05:00,
2013-05-13 18:10:00,53.1,22.4,29.97,SW,217,2.0,2.0,30,0.00,,,0.00,Wunderground v.1.13,2013-05-13 22:10:00,
2013-05-13 18:15:00,53.1,24.0,29.97,West,280,1.0,2.0,32,0.00,,,0.00,Wunderground v.1.13,2013-05-13 22:15:00,
2013-05-13 18:25:00,52.9,23.8,29.97,North,359,1.0,1.0,32,0.00,,,0.00,Wunderground v.1.13,2013-05-13 22:25:00,
2013-05-13 18:30:00,52.9,24.5,29.97,NNE,31,1.0,1.0,33,0.00,,,0.00,Wunderground v.1.13,2013-05-13 22:30:00,
2013-05-13 18:35:00,52.5,23.5,29.97,West,265,1.0,1.0,32,0.00,,,0.00,Wunderground v.1.13,2013-05-13 22:35:00,
2013-05-13 18:40:00,52.2,24.6,29.97,SW,234,1.0,1.0,34,0.00,,,0.00,Wunderground v.1.13,2013-05-13 22:40:00,
2013-05-13 18:50:00,51.6,24.8,29.97,ENE,62,0.0,0.0,35,0.00,,,0.00,Wunderground v.1.13,2013-05-13 22:50:00,
2013-05-13 18:55:00,51.3,25.2,29.97,ENE,62,0.0,0.0,36,0.00,,,0.00,Wunderground v.1.13,2013-05-13 22:55:00,
2013-05-13 19:00:00,51.1,25.7,29.98,ENE,72,0.0,0.0,37,0.00,,,0.00,Wunderground v.1.13,2013-05-13 23:00:00,
2013-05-13 19:10:00,50.8,27.3,29.98,West,272,1.0,1.0,40,0.00,,,0.00,Wunderground v.1.13,2013-05-13 23:10:00,
2013-05-13 19:15:00,50.7,29.0,29.99,WNW,282,1.0,1.0,43,0.00,,,0.00,Wunderground v.1.13,2013-05-13 23:15:00,
2013-05-13 19:20:00,50.5,29.4,29.99,West,281,1.0,1.0,44,0.00,,,0.00,Wunderground v.1.13,2013-05-13 23:20:00,
2013-05-13 19:30:00,49.8,30.4,29.99,West,278,1.0,1.0,47,0.00,,,0.00,Wunderground v.1.13,2013-05-13 23:30:00,
2013-05-13 19:35:00,49.6,30.7,29.99,West,280,0.0,0.0,48,0.00,,,0.00,Wunderground v.1.13,2013-05-13 23:35:00,
2013-05-13 19:40:00,49.4,30.5,29.99,West,278,0.0,0.0,48,0.00,,,0.00,Wunderground v.1.13,2013-05-13 23:40:00,
2013-05-13 19:45:00,49.2,30.3,30.00,North,359,0.0,0.0,48,0.00,,,0.00,Wunderground v.1.13,2013-05-13 23:45:00,
2013-05-13 19:55:00,48.6,28.7,30.00,WNW,292,0.0,0.0,46,0.00,,,0.00,Wunderground v.1.13,2013-05-13 23:55:00,
2013-05-13 20:00:00,48.5,29.2,30.00,WNW,292,0.0,0.0,47,0.00,,,0.00,Wunderground v.1.13,2013-05-14 00:00:00,
2013-05-13 20:05:00,48.3,29.0,30.00,WNW,292,0.0,0.0,47,0.00,,,0.00,Wunderground v.1.13,2013-05-14 00:05:00,
2013-05-13 20:10:00,48.2,29.4,30.00,WNW,292,0.0,0.0,48,0.00,,,0.00,Wunderground v.1.13,2013-05-14 00:10:00,
2013-05-13 20:20:00,47.7,30.0,30.01,WNW,292,0.0,0.0,50,0.00,,,0.00,Wunderground v.1.13,2013-05-14 00:20:00,
2013-05-13 20:25:00,47.6,30.3,30.01,WNW,292,0.0,0.0,51,0.00,,,0.00,Wunderground v.1.13,2013-05-14 00:25:00,
2013-05-13 20:30:00,47.4,30.6,30.02,WNW,292,0.0,0.0,52,0.00,,,0.00,Wunderground v.1.13,2013-05-14 00:30:00,
2013-05-13 20:40:00,46.8,31.0,30.02,WNW,292,0.0,0.0,54,0.00,,,0.00,Wunderground v.1.13,2013-05-14 00:40:00,
2013-05-13 20:45:00,46.7,30.9,30.02,WNW,292,0.0,0.0,54,0.00,,,0.00,Wunderground v.1.13,2013-05-14 00:45:00,
2013-05-13 20:55:00,46.2,31.4,30.02,WNW,292,0.0,0.0,56,0.00,,,0.00,Wunderground v.1.13,2013-05-14 00:55:00,
2013-05-13 21:00:00,46.0,31.6,30.02,WNW,292,0.0,0.0,57,0.00,,,0.00,Wunderground v.1.13,2013-05-14 01:00:00,
2013-05-13 21:05:00,45.7,32.2,30.03,WNW,292,0.0,0.0,59,0.00,,,0.00,Wunderground v.1.13,2013-05-14 01:05:00,
2013-05-13 21:10:00,45.4,32.3,30.03,WNW,292,0.0,0.0,60,0.00,,,0.00,Wunderground v.1.13,2013-05-14 01:10:00,
2013-05-13 21:15:00,44.9,32.3,30.03,WNW,292,0.0,0.0,61,0.00,,,0.00,Wunderground v.1.13,2013-05-14 01:15:00,
2013-05-13 21:25:00,44.2,32.4,30.03,WNW,292,0.0,0.0,63,0.00,,,0.00,Wunderground v.1.13,2013-05-14 01:25:00,
2013-05-13 21:30:00,43.8,32.8,30.04,WNW,292,0.0,0.0,65,0.00,,,0.00,Wunderground v.1.13,2013-05-14 01:30:00,
2013-05-13 21:35:00,43.5,32.9,30.04,WNW,292,0.0,0.0,66,0.00,,,0.00,Wunderground v.1.13,2013-05-14 01:35:00,
2013-05-13 21:45:00,42.9,32.7,30.04,WNW,292,0.0,0.0,67,0.00,,,0.00,Wunderground v.1.13,2013-05-14 01:45:00,
2013-05-13 21:50:00,42.8,33.0,30.05,WNW,292,0.0,0.0,68,0.00,,,0.00,Wunderground v.1.13,2013-05-14 01:50:00,
2013-05-13 21:55:00,42.5,32.7,30.05,WNW,292,0.0,0.0,68,0.00,,,0.00,Wunderground v.1.13,2013-05-14 01:55:00,
2013-05-13 22:00:00,42.2,33.1,30.05,WNW,292,0.0,0.0,70,0.00,,,0.00,Wunderground v.1.13,2013-05-14 02:00:00,
2013-05-13 22:10:00,41.6,32.9,30.05,WNW,292,0.0,0.0,71,0.00,,,0.00,Wunderground v.1.13,2013-05-14 02:10:00,
2013-05-13 22:15:00,41.5,33.1,30.06,WNW,292,0.0,0.0,72,0.00,,,0.00,Wunderground v.1.13,2013-05-14 02:15:00,
2013-05-13 22:25:00,41.2,33.5,30.06,WNW,292,0.0,0.0,74,0.00,,,0.00,Wunderground v.1.13,2013-05-14 02:25:00,
2013-05-13 22:30:00,41.1,33.8,30.06,WNW,292,0.0,0.0,75,0.00,,,0.00,Wunderground v.1.13,2013-05-14 02:30:00,
2013-05-13 22:35:00,40.9,33.9,30.06,WNW,292,0.0,0.0,76,0.00,,,0.00,Wunderground v.1.13,2013-05-14 02:35:00,
2013-05-13 22:40:00,40.8,33.8,30.06,WNW,292,0.0,0.0,76,0.00,,,0.00,Wunderground v.1.13,2013-05-14 02:40:00,
2013-05-13 22:45:00,40.8,34.1,30.06,WNW,292,0.0,0.0,77,0.00,,,0.00,Wunderground v.1.13,2013-05-14 02:45:00,
2013-05-13 22:55:00,40.9,34.2,30.06,WNW,292,0.0,0.0,77,0.00,,,0.00,Wunderground v.1.13,2013-05-14 02:55:00,
2013-05-13 23:00:00,40.8,34.1,30.06,WNW,292,0.0,0.0,77,0.00,,,0.00,Wunderground v.1.13,2013-05-14 03:00:00,
2013-05-13 23:05:00,40.8,34.5,30.06,WNW,292,0.0,0.0,78,0.00,,,0.00,Wunderground v.1.13,2013-05-14 03:05:00,
2013-05-13 23:15:00,40.5,34.5,30.06,WNW,292,0.0,0.0,79,0.00,,,0.00,Wunderground v.1.13,2013-05-14 03:15:00,
2013-05-13 23:20:00,40.3,34.3,30.06,WNW,292,0.0,0.0,79,0.00,,,0.00,Wunderground v.1.13,2013-05-14 03:20:00,
2013-05-13 23:25:00,40.3,34.6,30.06,WNW,292,0.0,0.0,80,0.00,,,0.00,Wunderground v.1.13,2013-05-14 03:25:00,
2013-05-13 23:30:00,40.2,34.5,30.06,WNW,292,0.0,0.0,80,0.00,,,0.00,Wunderground v.1.13,2013-05-14 03:30:00,
2013-05-13 23:40:00,40.1,34.7,30.06,WNW,292,0.0,0.0,81,0.00,,,0.00,Wunderground v.1.13,2013-05-14 03:40:00,
2013-05-13 23:45:00,39.9,34.5,30.06,WNW,292,0.0,0.0,81,0.00,,,0.00,Wunderground v.1.13,2013-05-14 03:45:00,
2013-05-13 23:55:00,39.6,34.6,30.06,WNW,292,0.0,0.0,82,0.00,,,0.00,Wunderground v.1.13,2013-05-14 03:55:00,